Tracking 31027 objects as of 19-Jul-2025
HD Live streaming from Space Station
objects crossing your sky now

STARLINK-3930

Track STARLINK-3930 now!
10-day predictions
STARLINK-3930 is classified as:


NORAD ID: 52568
Int'l Code: 2022-051AM
Perigee: 545.6 km
Apogee: 548.2 km
Inclination: 53.2 °
Period: 95.4 minutes
Semi major axis: 6917 km
RCS: Unknown
Launch date: May 13, 2022
Source: United States (US)
Launch site: AIR FORCE WESTERN TEST RANGE (AFWTR)
Your satellite tracking list
ICEYE-X27
Track 1 satellite(s)




NASA's NSSDC Master Catalog

Two Line Element Set (TLE):
1 52568U 22051AM  25199.73267739  .00001226  00000-0  95149-4 0  9999
2 52568  53.2191  89.3988 0001882 102.5277 257.5926 15.08828253176267
Source of the keplerian elements: AFSPC